Wind_Speed
31 29 26 25 24 24 24 23 23 24 22 22 23 23 25 26 26 25 25 25 25 25 25 26 26 25 25 25 25 24 25 26 26 26 26 27 27 26 25 26 26 27 27
32 32 31 29 27 25 25 25 26 26 24 23 23 25 26 28 28 27 27 27 27 28 29 29 28 28 28 27 27 26 26 27 28 29 28 27 27 27 27 28 29 29 30
33 33 32 31 29 28 27 26 27 28 26 26 27 28 29 29 29 29 29 28 29 30 31 30 29 29 29 28 28 27 27 28 29 30 29 27 27 28 29 30 30 31 32
32 33 32 31 30 30 29 28 28 29 28 29 30 31 31 30 31 32 32 31 30 30 30 30 30 29 29 30 30 29 28 28 27 29 29 28 28 27 28 29 31 32 33
29 30 30 29 29 29 29 28 28 28 29 30 31 31 30 30 32 31 32 32 32 31 31 30 31 30 29 29 29 27 26 26 26 27 28 29 28 28 29 30 31 33 34
25 26 27 28 28 28 29 28 28 28 29 29 30 30 30 30 31 32 33 32 33 32 32 32 32 31 30 29 27 27 26 26 26 27 27 28 29 30 32 32 33 35 37
23 25 26 27 26 26 28 28 28 28 29 29 27 27 26 27 28 28 30 31 31 31 31 32 31 29 28 26 26 25 26 27 28 29 29 30 32 34 35 36 37 39 40
22 24 25 26 27 27 27 28 28 28 28 28 27 25 24 24 25 25 25 26 26 27 28 27 27 26 25 25 25 27 28 30 31 32 33 34 36 37 38 40 41 43 44
21 23 24 25 26 26 27 26 27 27 27 26 24 24 23 23 23 23 24 24 24 24 25 25 25 25 25 26 27 30 32 33 34 36 37 39 40 41 42 43 44 46 47
21 22 24 25 26 25 25 25 26 26 25 25 25 25 24 23 24 23 23 23 23 23 24 25 26 26 28 30 31 33 34 36 37 39 40 41 42 43 45 46 47 48 49
19 22 23 24 25 25 25 24 25 25 25 25 25 25 25 24 24 24 24 24 25 24 25 27 28 29 31 32 33 35 37 38 40 40 41 43 44 45 47 48 49 51 52
18 20 21 22 23 24 24 25 25 25 25 25 25 25 25 25 25 25 25 25 25 26 27 28 30 31 33 34 36 38 39 40 41 42 43 44 45 46 47 48 49 51 52
17 18 19 21 23 24 25 26 26 26 26 26 26 25 25 25 25 25 26 26 27 28 29 30 32 33 35 36 38 39 40 41 41 42 43 44 44 44 45 46 47 48 49
17 18 20 21 23 24 25 25 25 25 25 26 26 25 25 26 26 26 27 28 29 30 31 32 33 34 36 37 38 39 40 41 41 42 42 42 42 43 43 44 45 45 46
17 18 20 22 23 24 25 25 26 26 26 26 26 26 26 26 27 27 27 28 29 30 31 32 33 34 35 36 37 38 38 39 39 39 39 40 40 40 40 40 40 40 40
18 19 19 21 22 23 24 25 26 26 27 26 26 26 26 26 26 26 26 27 28 29 30 31 32 33 34 34 35 35 36 37 37 36 35 35 35 35 35 35 34 34 34
17 18 18 19 20 21 23 24 25 25 25 25 26 25 25 25 26 26 26 27 28 28 28 29 30 31 31 32 33 33 33 32 31 30 30 30 30 30 29 29 30 29 29
17 17 18 19 19 20 21 22 23 23 23 24 24 24 24 24 25 25 25 26 26 26 26 27 28 29 29 29 29 29 27 26 26 27 26 26 26 25 25 25 25 25 24
15 16 17 17 18 19 19 20 20 20 21 21 21 21 22 22 22 23 23 23 23 23 23 24 24 25 25 25 24 23 22 21 22 22 22 21 21 21 21 21 21 21 20
13 14 15 15 16 16 17 18 18 18 18 18 19 19 19 20 20 20 21 20 20 21 21 21 21 21 21 20 18 17 17 17 17 17 17 16 17 17 18 18 18 18 17
12 12 13 13 13 14 15 16 16 16 16 16 16 17 17 18 18 19 19 19 18 18 18 18 18 18 16 16 15 14 14 14 14 15 15 15 16 17 17 17 16 16 16
12 13 13 13 13 13 14 14 15 15 16 16 16 17 17 17 17 17 17 16 16 16 16 15 15 14 14 13 13 12 12 12 13 13 14 15 15 16 16 16 15 15 15
11 11 12 12 12 13 14 14 14 14 15 15 16 16 16 16 15 15 14 14 13 13 13 13 12 12 11 11 11 11 11 12 12 13 13 14 15 15 15 15 15 15 14
10 11 11 11 12 12 13 13 13 13 14 14 14 14 14 14 13 13 12 12 11 11 10 10 10 10 9 9 10 10 11 11 12 12 13 14 15 15 15 15 15 14 14
9 10 10 11 11 11 11 11 12 12 12 12 13 12 12 12 11 10 10 10 9 9 8 8 8 8 8 8 9 9 10 11 12 13 13 14 15 15 15 15 15 14 14
9 9 9 9 10 10 10 11 11 11 11 12 12 11 11 11 10 9 9 8 7 7 6 7 7 7 7 8 8 9 10 11 11 12 13 14 14 14 15 15 14 14 14
Wind_Direction
225 225 228 231 234 240 244 246 241 239 239 240 240 239 236 233 230 233 234 235 238 241 244 246 247 249 251 254 257 262 268 271 272 274 275 274 275 277 279 279 278 277 276
226 228 232 236 239 242 246 248 248 247 245 245 247 246 239 233 231 233 235 237 241 243 246 246 250 252 254 255 258 264 269 271 273 274 275 274 272 275 277 277 276 276 275
229 231 234 238 240 242 246 249 251 251 255 254 255 253 247 241 235 234 234 238 242 246 247 250 254 253 254 259 261 265 269 271 273 275 276 273 269 271 274 274 275 275 276
229 231 233 235 238 242 245 249 253 254 259 264 263 258 253 246 241 237 237 239 243 246 249 250 254 255 258 261 263 265 267 273 274 272 272 273 273 274 274 274 275 276 277
228 229 231 234 238 241 245 249 252 256 261 266 263 261 251 244 242 242 240 241 244 246 248 251 255 260 263 264 266 270 270 275 276 275 274 274 275 277 279 278 278 278 278
226 227 230 234 238 241 245 249 252 259 265 268 266 262 251 245 242 240 242 245 248 250 252 255 258 261 265 268 270 273 276 279 279 280 278 277 277 278 279 279 279 279 278
227 228 231 235 239 243 246 250 254 258 264 267 268 264 255 250 247 247 246 248 251 254 255 258 260 264 268 271 275 277 279 281 282 282 281 281 281 281 282 281 281 281 280
230 230 233 236 240 244 246 249 253 258 263 267 267 266 269 265 258 257 258 257 259 261 263 265 266 269 273 277 278 279 281 282 283 283 283 283 283 283 283 283 282 281 281
240 239 239 240 241 244 247 251 253 257 261 267 270 273 274 274 272 268 266 267 270 269 269 274 276 278 280 281 283 282 282 282 284 285 284 284 284 284 284 283 283 283 282
246 244 244 244 245 247 249 250 252 257 263 265 269 273 274 274 274 275 274 274 272 274 276 276 278 279 280 283 283 283 284 285 286 287 287 286 285 285 285 284 284 283 282
246 246 246 246 247 248 251 254 256 259 264 267 269 270 273 273 272 274 275 276 277 278 277 278 280 281 283 284 284 285 287 288 288 288 287 286 286 286 285 285 284 284 283
249 249 248 246 248 250 252 254 258 262 266 269 270 270 272 273 274 276 278 279 279 279 279 281 282 283 284 286 287 288 289 289 289 289 289 288 288 287 286 286 285 284 283
255 254 251 249 250 252 254 257 259 263 267 270 272 271 273 274 274 277 278 280 280 281 281 282 283 285 286 287 289 290 290 290 290 290 290 289 289 288 288 287 287 285 284
261 258 254 255 254 254 256 258 259 263 267 269 270 271 272 274 275 277 277 278 279 280 281 283 285 286 288 289 290 291 291 291 291 291 291 290 290 289 289 289 288 288 287
263 260 257 259 258 257 257 258 261 263 266 268 269 271 273 274 275 276 277 278 279 281 283 285 287 288 289 290 291 292 292 292 292 291 291 290 291 291 292 292 292 292 292
261 260 260 259 260 260 259 259 261 263 265 268 269 271 272 273 274 275 276 279 280 282 284 286 288 290 291 292 292 293 293 293 292 292 292 294 295 295 296 297 297 297 296
265 263 262 261 260 259 259 260 260 262 264 266 268 269 270 272 273 274 277 279 281 284 286 288 290 292 293 294 295 295 295 295 295 295 297 299 300 300 301 302 303 304 304
265 265 266 265 261 258 259 259 260 262 264 266 268 269 270 272 274 275 277 280 283 285 287 290 292 294 296 298 299 298 297 298 299 301 302 304 304 305 307 309 310 311 312
266 266 265 266 264 260 260 260 262 264 266 268 270 270 272 273 275 277 279 282 285 287 290 293 296 298 300 302 302 301 302 304 306 308 311 313 313 315 318 320 321 320 320
268 267 265 266 266 266 264 263 264 265 267 269 270 270 272 273 276 278 280 283 285 288 292 296 299 302 304 305 307 309 310 314 317 320 323 326 329 331 332 332 332 331 331
269 268 268 269 269 271 270 268 267 267 268 269 271 272 274 275 276 278 281 284 286 289 293 297 300 303 306 308 310 313 316 319 323 327 330 332 335 337 338 337 337 338 339
278 276 275 277 275 274 274 273 273 273 272 271 272 273 275 277 278 280 281 283 285 290 295 299 302 304 307 311 314 319 322 325 327 328 330 333 335 337 339 340 341 342 343
287 286 283 281 279 277 276 276 277 276 275 274 274 275 276 277 278 279 280 282 286 291 296 299 302 304 308 312 318 324 326 328 330 331 333 336 337 338 340 341 341 342 343
295 293 290 286 284 284 282 280 279 280 279 278 278 278 278 278 277 277 278 281 286 291 293 297 299 303 310 318 323 327 329 331 333 334 336 337 337 337 338 339 340 341 342
302 298 295 291 288 287 286 284 283 283 282 280 279 280 279 277 275 274 275 280 284 288 291 297 301 307 314 319 322 329 333 335 335 335 336 337 338 338 339 340 341 341 342
311 306 302 299 295 291 289 287 286 285 283 282 281 279 277 274 272 271 272 275 280 284 289 297 304 310 313 316 321 329 333 335 336 336 337 338 339 340 341 342 343 344 344
Height
5804 5809 5813 5816 5818 5820 5821 5822 5823 5825 5826 5828 5828 5830 5831 5832 5834 5836 5838 5839 5841 5842 5843 5843 5844 5845 5846 5846 5846 5847 5847 5846 5846 5846 5846 5845 5845 5844 5843 5842 5842 5841 5840
5798 5803 5807 5810 5813 5815 5817 5818 5819 5820 5821 5822 5823 5824 5824 5825 5827 5830 5832 5834 5835 5836 5837 5838 5838 5839 5840 5840 5840 5841 5841 5840 5840 5839 5839 5838 5839 5838 5837 5836 5835 5834 5832
5791 5796 5800 5804 5807 5809 5811 5813 5814 5815 5816 5816 5816 5817 5818 5819 5822 5824 5825 5827 5829 5830 5831 5832 5832 5833 5833 5833 5834 5834 5834 5833 5832 5832 5831 5831 5831 5831 5830 5828 5827 5826 5825
5785 5789 5794 5798 5801 5803 5806 5808 5809 5809 5810 5810 5811 5810 5810 5813 5816 5817 5819 5821 5822 5823 5824 5825 5825 5826 5826 5827 5827 5827 5827 5826 5825 5825 5824 5824 5823 5823 5822 5821 5819 5818 5816
5779 5784 5788 5792 5795 5797 5800 5802 5803 5804 5805 5804 5804 5802 5802 5804 5807 5810 5812 5814 5816 5817 5817 5818 5819 5819 5820 5820 5820 5820 5819 5819 5818 5818 5817 5816 5815 5815 5814 5813 5812 5810 5808
5774 5778 5782 5785 5788 5791 5793 5795 5797 5798 5799 5799 5798 5798 5797 5797 5800 5801 5805 5807 5808 5809 5811 5811 5812 5813 5813 5813 5813 5813 5812 5811 5811 5810 5809 5809 5808 5807 5806 5804 5803 5801 5799
5770 5773 5776 5779 5782 5785 5787 5789 5790 5792 5792 5793 5793 5792 5791 5791 5793 5795 5797 5800 5801 5802 5804 5805 5806 5806 5806 5806 5806 5806 5805 5805 5804 5804 5803 5801 5800 5799 5797 5795 5793 5791 5789
5765 5767 5770 5773 5776 5779 5781 5783 5784 5785 5786 5786 5786 5786 5787 5786 5788 5789 5791 5793 5795 5796 5796 5797 5798 5798 5799 5799 5799 5798 5798 5797 5796 5795 5794 5792 5791 5789 5787 5785 5783 5780 5778
5760 5763 5765 5767 5770 5772 5774 5776 5778 5779 5779 5780 5780 5781 5781 5782 5783 5784 5785 5787 5788 5789 5790 5791 5791 5791 5791 5791 5791 5791 5790 5789 5787 5786 5784 5783 5780 5778 5776 5774 5771 5769 5765
5755 5757 5759 5761 5764 5766 5768 5770 5771 5772 5773 5773 5774 5775 5776 5776 5778 5779 5780 5781 5782 5783 5783 5784 5784 5784 5784 5783 5783 5782 5781 5779 5777 5776 5774 5772 5769 5766 5764 5761 5758 5755 5752
5750 5752 5754 5756 5758 5760 5762 5763 5765 5766 5767 5768 5769 5769 5770 5771 5772 5773 5774 5775 5775 5775 5776 5776 5776 5776 5775 5775 5774 5772 5770 5769 5767 5764 5762 5760 5757 5754 5751 5748 5744 5741 5737
5745 5747 5748 5750 5752 5754 5755 5757 5758 5759 5760 5762 5762 5763 5764 5765 5766 5766 5767 5767 5768 5768 5768 5768 5767 5767 5766 5765 5764 5762 5760 5758 5755 5753 5750 5747 5744 5741 5737 5734 5730 5726 5722
5740 5741 5743 5744 5746 5747 5749 5750 5752 5753 5754 5755 5756 5756 5757 5758 5758 5759 5759 5760 5760 5760 5760 5759 5759 5758 5757 5755 5753 5751 5749 5746 5744 5741 5738 5734 5731 5728 5724 5720 5716 5711 5707
5735 5736 5737 5738 5739 5741 5742 5743 5744 5746 5746 5747 5748 5749 5750 5750 5751 5751 5751 5752 5752 5752 5751 5751 5750 5748 5747 5745 5743 5740 5738 5735 5732 5729 5725 5722 5718 5715 5711 5706 5702 5697 5693
5730 5730 5731 5732 5733 5734 5735 5736 5737 5738 5739 5740 5741 5741 5742 5742 5743 5743 5743 5743 5743 5743 5743 5742 5740 5739 5737 5735 5732 5730 5727 5724 5720 5717 5714 5710 5706 5702 5698 5694 5689 5684 5680
5724 5724 5725 5725 5726 5727 5728 5729 5730 5731 5732 5732 5733 5734 5734 5735 5735 5736 5736 5736 5735 5735 5734 5733 5731 5730 5727 5725 5722 5719 5716 5713 5710 5706 5703 5699 5695 5691 5687 5683 5678 5674 5669
5718 5718 5718 5719 5719 5720 5721 5722 5723 5724 5724 5725 5726 5727 5727 5727 5728 5728 5728 5728 5728 5727 5726 5724 5723 5721 5718 5715 5713 5709 5706 5703 5699 5696 5692 5689 5685 5681 5677 5673 5669 5665 5660
5713 5713 5713 5713 5713 5714 5714 5715 5716 5717 5718 5718 5719 5719 5720 5720 5720 5721 5721 5720 5720 5719 5718 5716 5714 5712 5710 5707 5703 5700 5697 5694 5691 5687 5684 5681 5677 5673 5670 5666 5662 5657 5653
5708 5708 5708 5708 5708 5708 5709 5709 5710 5711 5711 5712 5712 5713 5713 5713 5714 5714 5714 5713 5713 5712 5711 5709 5707 5705 5702 5699 5696 5693 5690 5687 5684 5680 5677 5674 5670 5667 5663 5660 5656 5652 5649
5703 5703 5703 5703 5703 5703 5704 5704 5705 5705 5706 5706 5706 5707 5707 5707 5707 5707 5707 5707 5706 5705 5704 5702 5700 5698 5695 5692 5689 5687 5684 5681 5679 5676 5672 5669 5666 5663 5659 5656 5653 5649 5646
5699 5699 5699 5698 5699 5699 5699 5699 5699 5700 5700 5700 5701 5701 5701 5701 5701 5701 5700 5700 5700 5699 5697 5696 5694 5692 5690 5688 5685 5683 5680 5678 5675 5672 5669 5666 5663 5660 5657 5654 5651 5647 5644
5695 5695 5694 5694 5694 5694 5694 5694 5694 5694 5695 5695 5695 5695 5695 5695 5695 5695 5695 5694 5694 5693 5692 5691 5689 5688 5686 5684 5681 5679 5677 5674 5672 5669 5667 5664 5661 5658 5655 5652 5649 5646 5642
5691 5691 5690 5690 5690 5690 5690 5690 5690 5690 5690 5690 5690 5690 5690 5690 5690 5690 5690 5689 5689 5689 5688 5687 5685 5684 5683 5681 5679 5676 5674 5672 5670 5667 5664 5662 5659 5656 5653 5650 5647 5644 5641
5688 5687 5687 5686 5686 5686 5686 5685 5685 5685 5685 5685 5685 5685 5685 5685 5685 5685 5685 5685 5685 5684 5684 5683 5682 5681 5680 5678 5676 5674 5672 5670 5667 5665 5662 5660 5657 5654 5651 5648 5646 5643 5640
5685 5685 5684 5683 5683 5682 5682 5682 5681 5681 5681 5681 5681 5680 5681 5681 5681 5681 5681 5681 5681 5681 5681 5680 5679 5678 5677 5675 5674 5672 5670 5668 5666 5663 5661 5658 5655 5652 5649 5646 5644 5641 5638
5683 5682 5681 5680 5680 5679 5679 5678 5678 5677 5677 5677 5677 5676 5676 5677 5677 5677 5678 5678 5678 5678 5678 5677 5677 5676 5675 5673 5672 5670 5668 5666 5664 5661 5659 5656 5653 5650 5648 5645 5642 5639 5637